CDT,Max TemperatureF,Mean TemperatureF,Min TemperatureF,Max Dew PointF,MeanDew PointF,Min DewpointF,Max Humidity, Mean Humidity, Min Humidity, Max Sea Level PressureIn, Mean Sea Level PressureIn, Min Sea Level PressureIn, Max VisibilityMiles, Mean VisibilityMiles, Min VisibilityMiles, Max Wind SpeedMPH, Mean Wind SpeedMPH, Max Gust SpeedMPH,PrecipitationIn, CloudCover, Events, WindDirDegrees
2012-10-1,86,74,63,64,59,52,86,66,33,29.93,29.87,29.81,10,10,10,14,3,16,0.00,1,,12
2012-10-2,86,74,61,63,53,40,88,55,19,29.98,29.94,29.90,10,10,10,15,5,22,0.00,0,,321
2012-10-3,94,76,59,70,60,51,87,60,28,30.00,29.95,29.88,10,10,7,18,5,24,0.00,0,,135
2012-10-4,96,82,68,70,65,54,91,65,24,30.08,30.01,29.97,10,9,5,21,10,25,0.00,0,,137
2012-10-5,91,77,63,67,63,56,93,65,30,30.10,30.02,29.93,10,10,5,16,7,21,0.00,0,,140
2012-10-6,91,74,59,64,61,53,93,65,28,30.01,29.95,29.87,10,10,4,16,4,22,0.00,1,,100
2012-10-7,70,66,62,64,55,49,84,67,55,30.14,30.08,29.98,10,9,5,16,9,23,0.00,7,,13
2012-10-8,72,65,59,56,49,46,68,56,46,30.22,30.14,30.09,10,10,10,15,8,20,0.00,8,,9
2012-10-9,92,77,63,70,63,56,85,63,37,30.09,30.00,29.90,10,10,7,14,4,21,0.00,4,,138
2012-10-10,93,80,69,72,69,63,94,76,38,30.06,29.99,29.93,10,8,0,16,6,25,0.00,5,,128
2012-10-11,91,80,70,72,69,66,93,75,43,30.09,30.04,30.00,10,8,2,16,6,25,0.00,2,,125
2012-10-12,89,78,66,72,68,64,94,75,46,30.12,30.06,30.00,10,8,1,18,6,26,0.00,3,,115
2012-10-13,93,82,70,71,68,63,92,65,37,30.07,29.97,29.87,10,9,4,24,11,31,0.00,3,,142
2012-10-14,88,78,68,69,67,64,92,68,45,30.03,29.97,29.91,10,9,5,14,7,20,0.00,3,,132
2012-10-15,89,79,69,68,65,60,87,66,39,30.07,30.00,29.92,10,10,10,13,3,16,0.00,5,,77
2012-10-16,91,80,69,69,65,58,91,66,35,29.97,29.85,29.73,10,10,2,12,3,18,0.04,2,,160
2012-10-17,99,84,70,68,62,50,85,54,19,29.77,29.70,29.60,10,10,10,13,7,23,0.00,1,,171
2012-10-18,95,82,68,71,67,63,92,68,35,29.89,29.76,29.69,10,9,2,21,5,28,0.00,2,,60
2012-10-19,86,78,70,64,57,50,73,51,44,30.01,29.94,29.90,10,10,10,14,8,18,0.00,4,,48
2012-10-20,93,79,66,71,66,61,91,66,36,29.93,29.86,29.77,10,9,4,17,5,23,0.00,2,,149
2012-10-21,93,80,68,70,66,58,94,68,30,29.92,29.87,29.82,10,8,2,21,9,29,0.00,1,,136
2012-10-22,91,79,67,69,66,59,92,66,34,29.95,29.90,29.85,10,10,7,21,9,25,0.00,2,,139
2012-10-23,91,79,67,68,65,60,89,65,36,29.95,29.91,29.86,10,10,7,16,7,23,0.00,3,,126
2012-10-24,91,76,61,67,61,50,94,66,26,29.96,29.90,29.83,10,9,2,14,5,21,0.00,1,,128
2012-10-25,93,78,64,69,63,52,92,66,26,29.89,29.83,29.76,10,10,7,16,7,22,0.00,1,,143
2012-10-26,73,64,53,68,57,47,91,78,55,30.21,30.02,29.89,10,10,4,16,6,23,0.01,7,,10
2012-10-27,63,58,54,49,39,34,77,50,34,30.27,30.19,30.11,10,10,10,15,9,22,0.00,8,,354
2012-10-28,70,62,52,41,33,23,57,35,17,30.25,30.19,30.14,10,10,10,12,5,16,0.00,4,,24
2012-10-29,78,62,48,50,38,30,76,47,18,30.26,30.19,30.10,10,10,10,12,3,,0.00,0,,35
2012-10-30,85,67,50,61,52,46,86,62,30,30.14,30.04,29.94,10,10,10,14,4,22,0.00,0,,135
2012-10-31,91,76,62,68,62,50,91,67,25,30.02,29.98,29.91,10,10,10,13,5,20,0.00,3,,117